This is the latest recevied weather packets stored in our database for station/object KE5KUL-13. If no packets are shown the sender has not sent any weather packets the latest 10 day(s).
| Time | Temp. | Humidity | Pressure | Rain* | Wind** | Luminosity | Snow |
|---|---|---|---|---|---|---|---|
| 1778029817 | 14.44° C | 48% | 1008.8 hPa | 0 mm | - | - | - |
| 1778029217 | 14.44° C | 47% | 1008.8 hPa | 0 mm | - | - | - |
| 1778028617 | 15° C | 46% | 1008.8 hPa | 0 mm | - | - | - |
| 1778028017 | 15.56° C | 46% | 1008.7 hPa | 0 mm | - | - | - |
| 1778027417 | 15.56° C | 45% | 1008.3 hPa | 0 mm | - | - | - |
| 1778026817 | 15.56° C | 45% | 1008.1 hPa | 0 mm | - | - | - |
| 1778026217 | 16.11° C | 45% | 1008.1 hPa | 0 mm | - | - | - |
| 1778025617 | 16.11° C | 44% | 1008.1 hPa | 0 mm | - | - | - |
| 1778025017 | 16.67° C | 44% | 1008.4 hPa | 0 mm | - | - | - |
| 1778024419 | 16.67° C | 43% | 1008.5 hPa | 0 mm | - | - | - |
| 1778023817 | 17.22° C | 43% | 1008.5 hPa | 0 mm | - | - | - |
| 1778023217 | 17.22° C | 42% | 1008.6 hPa | 0 mm | - | - | - |
| 1778022617 | 17.22° C | 42% | 1008.6 hPa | 0 mm | - | - | - |
| 1778022019 | 17.78° C | 40% | 1009 hPa | 0 mm | - | - | - |
| 1778021417 | 17.78° C | 41% | 1008.8 hPa | 0 mm | - | - | - |
| 1778020817 | 18.33° C | 40% | 1009.2 hPa | 0 mm | - | - | - |
| 1778020217 | 17.78° C | 41% | 1009.3 hPa | 0 mm | - | - | - |
| 1778019619 | 17.78° C | 41% | 1009.6 hPa | 0 mm | - | - | - |
| 1778019019 | 18.33° C | 40% | 1010 hPa | 0 mm | - | - | - |
| 1778018417 | 18.33° C | 39% | 1010.3 hPa | 0 mm | - | - | - |
| 1778017817 | 18.89° C | 39% | 1010.4 hPa | 0 mm | - | - | - |
| 1778017219 | 18.33° C | 39% | 1010.8 hPa | 0 mm | - | - | - |
| 1778016619 | 18.33° C | 39% | 1011.4 hPa | 0 mm | - | - | - |
| 1778016019 | 18.33° C | 39% | 1011.3 hPa | 0 mm | - | - | - |
| 1778015419 | 18.33° C | 39% | 1011.6 hPa | 0 mm | - | - | - |
* Rain latest hour (hover to see other rain measurements)
** Current wind speed in m/s (hover to see current wind gust speed)